Location: Krakow
(50.0830°N, 19.9170°E)
Time: 06:54:19
(UTC+02:00)

A-11 Canister half - Pass Details

Date: 20 March 2026
Orbit: 1523 x 1684 km, 47.3° (Epoch: 18 April)

Event Time Altitude Azimuth Distance (km) Brightness Sun altitude
Rises 11:19:56 0° 271° (W) 4,864 11.5 39.5°
Reaches altitude 10° 11:23:06 10° 270° (W) 3,856 11.1 39.6°
Maximum altitude 11:32:51 75° 188° (S) 1,634 10.3 39.8°
Drops below altitude 10° 11:42:16 10° 105° (ESE) 3,729 11.3 39.8°
Sets 11:45:17 0° 104° (ESE) 4,697 11.7 39.9°
